Powrót do katalogu

COSMOS 1275 DEB

AktywnyPO
NORAD 39966·DEBRIS·🇷🇺 Russia

Wystrzelony Jun 4, 1981 z Plesetsk Cosmodrome

Loading…

Następne Przeloty (najbliższe 24 godziny)

TLE

ŚwieżeSource: Space-Track

Epoka: Sep 14, 2026, 12:50 UTC

1 39966U 81053PC  26257.53526265  .00000874  00000-0  53992-3 0  9996
2 39966  82.7042 287.3737 0041671 112.4457  41.7022 14.03864992625665

Śledź COSMOS 1275 DEB w czasie rzeczywistym z AllMySat

Download on the App Store